Theta_e
323 320 320 320 318 315 313 313 314 316 318 323 328 333 339 343 349 350 351 351 352 351 350 350 350 349 349 349 349 350 351 351
323 322 320 322 316 318 312 319 321 317 317 321 326 332 337 338 341 348 350 349 349 351 350 350 350 350 349 349 350 350 351 353
324 321 325 321 318 315 312 313 316 317 321 318 326 339 342 345 344 345 350 352 352 352 351 350 351 352 351 351 352 353 352 342
330 327 322 320 320 315 317 318 313 314 321 321 341 345 348 348 348 345 347 352 353 353 353 352 353 352 353 354 354 356 357 357
323 321 324 322 323 322 314 315 321 326 325 328 338 342 346 348 348 344 341 345 349 351 346 338 333 334 341 348 343 347 352 355
323 324 324 325 325 325 322 323 324 323 326 334 337 339 341 347 348 344 340 339 341 340 341 338 339 339 338 335 339 344 351 354
323 324 325 326 326 326 327 326 327 326 325 325 326 336 342 345 346 348 346 345 347 346 341 340 347 348 350 352 354 354 351 354
326 325 325 327 325 325 324 325 326 326 326 325 327 336 342 344 346 346 345 342 344 343 343 341 342 343 345 347 350 359 357 359
324 322 323 325 326 326 324 327 326 329 327 324 335 337 339 342 344 344 344 341 341 341 339 342 342 342 335 341 345 351 359 359
320 321 325 322 321 324 326 331 330 331 333 331 331 336 339 341 343 345 345 344 342 341 340 340 341 337 333 334 339 345 352 356
322 320 320 324 324 328 327 333 330 331 332 333 335 337 337 338 340 340 342 344 343 341 340 338 338 336 337 335 333 337 338 341
318 323 324 322 326 328 325 331 329 330 332 333 333 331 330 339 337 334 338 339 339 338 338 338 336 333 331 332 333 334 336 336
319 322 324 325 327 328 329 327 329 332 333 332 330 332 332 334 334 335 336 337 336 336 335 334 333 329 327 329 328 329 329 328
320 325 331 329 328 328 326 328 328 327 328 328 330 331 333 333 333 334 334 334 334 335 334 333 334 334 331 328 329 329 327 325
321 323 327 328 328 328 328 327 327 326 326 326 327 328 328 330 331 333 333 334 333 333 334 337 337 337 336 332 332 330 329 327
321 328 329 328 327 327 327 326 327 326 325 325 324 324 324 325 328 329 329 329 330 332 338 339 338 337 337 335 333 330 329 332
323 328 328 328 328 325 326 327 328 328 328 327 328 327 327 326 326 325 325 326 327 328 329 335 336 334 331 330 331 329 329 331
323 327 327 327 326 326 325 326 326 325 325 327 327 326 326 325 324 324 324 324 324 325 327 328 330 333 327 327 329 330 332 331
328 329 328 326 324 323 323 323 323 323 323 322 321 326 326 326 325 325 324 324 324 324 323 324 327 328 326 327 328 330 334 336
Wind_Speed
3 3 5 1 1 3 6 3 3 4 8 7 9 11 16 15 15 16 20 23 23 28 35 37 40 42 39 37 39 35 32 28
7 4 4 3 6 3 4 1 2 6 5 4 11 11 11 11 19 16 16 20 22 26 32 33 37 39 40 40 43 36 33 29
2 4 1 6 5 5 5 4 5 0 7 5 4 3 2 9 17 17 18 21 23 23 27 30 28 30 33 39 39 33 33 19
2 1 5 4 4 4 5 5 1 3 5 9 7 5 9 15 17 16 17 21 24 22 24 22 25 27 27 32 32 24 25 28
8 7 5 6 5 4 4 2 2 3 5 4 6 3 7 12 14 20 26 27 29 28 24 21 7 5 21 22 9 11 20 22
6 4 2 3 5 3 5 3 1 4 3 5 3 2 7 8 16 24 24 25 25 24 18 14 4 9 5 11 14 15 18 19
2 3 3 2 1 3 3 2 3 5 4 7 10 11 18 15 16 19 22 21 19 20 21 14 12 7 7 9 15 19 20 23
2 2 1 1 2 2 1 2 2 1 5 4 17 21 24 24 27 25 24 20 16 15 16 21 17 11 9 12 16 13 14 18
3 3 4 3 3 1 2 2 3 1 4 9 1 2 14 18 15 24 25 22 18 16 13 15 21 7 6 8 11 11 3 5
3 3 2 7 3 1 7 2 4 3 6 9 7 10 14 15 17 21 20 22 20 17 16 15 15 7 5 3 6 4 5 5
4 4 4 4 2 4 6 2 5 6 8 9 10 4 5 13 15 13 15 16 18 17 15 13 8 7 6 5 5 6 5 6
2 4 6 5 4 8 4 2 17 14 10 4 0 2 5 5 9 1 6 11 11 11 12 10 8 10 10 11 11 14 18 17
3 4 4 3 13 2 5 4 15 15 15 16 4 3 5 1 5 6 6 9 8 9 10 11 10 8 8 9 11 13 15 19
2 3 3 16 4 6 3 7 10 16 18 17 12 9 6 4 6 9 10 12 15 18 19 19 17 15 11 13 16 19 22 22
4 4 5 16 16 10 7 6 8 11 13 14 15 16 15 14 11 11 14 16 21 25 25 24 22 19 17 20 20 22 25 26
3 2 8 8 7 5 3 5 7 10 13 15 19 20 20 21 22 23 22 20 18 17 22 27 25 24 23 24 22 23 25 24
1 1 3 10 4 5 6 5 7 8 11 13 15 20 23 26 28 30 32 32 29 28 30 29 28 28 28 28 26 26 27 27
5 11 6 7 7 2 3 4 7 10 12 12 14 18 22 26 29 31 34 36 40 39 36 34 38 41 37 33 31 31 32 31
6 13 10 6 5 4 5 9 11 14 15 19 21 20 22 27 31 30 33 37 41 44 45 45 37 38 39 36 33 34 36 36
Wind_Direction
274 152 115 186 41 185 107 18 36 283 301 325 336 4 34 82 131 175 194 202 196 195 206 213 213 214 217 219 219 226 229 234
293 56 27 109 165 19 15 136 315 301 294 264 334 346 349 50 86 124 176 184 189 197 204 214 215 215 219 227 226 225 226 234
19 56 144 13 13 51 121 117 161 235 288 214 287 26 13 52 88 111 138 160 181 194 204 210 212 220 224 229 227 225 232 217
179 241 349 110 167 112 107 281 116 157 286 342 120 120 108 103 119 146 157 164 175 189 198 202 223 228 224 231 232 222 236 239
356 0 5 55 332 94 114 88 174 100 268 349 358 98 165 157 144 152 160 163 170 173 179 195 232 157 198 204 233 262 264 257
180 198 207 9 340 46 100 67 225 226 277 156 194 203 295 215 174 161 166 170 169 179 193 215 192 112 172 222 274 287 263 256
179 185 160 221 274 3 46 164 156 265 233 241 206 197 192 198 174 162 165 174 181 184 181 173 145 84 26 324 304 290 275 255
157 73 218 219 355 27 341 328 301 155 272 252 284 178 179 185 179 172 172 161 172 190 189 165 134 56 6 350 334 316 255 256
249 341 82 8 224 291 97 344 248 47 262 321 330 160 179 181 206 176 167 163 176 191 195 198 199 211 311 327 1 6 357 189
210 18 195 239 286 124 116 341 338 324 323 329 275 208 185 188 189 175 165 159 154 158 162 163 176 198 235 276 317 34 106 146
164 193 278 288 2 139 177 339 341 319 1 53 65 130 225 212 186 177 181 176 168 160 163 171 184 205 265 294 283 290 279 268
134 169 213 234 281 331 115 344 343 334 351 73 110 57 286 209 196 262 196 188 193 184 192 202 224 267 284 301 301 296 299 295
166 208 285 292 308 113 144 228 345 20 20 16 44 89 36 56 242 241 233 210 217 238 254 259 252 260 288 308 304 300 303 309
119 105 217 342 347 101 191 55 24 23 22 22 22 10 353 319 256 240 236 251 262 256 271 277 268 261 271 305 317 317 313 309
165 202 166 65 93 99 75 37 11 357 354 348 341 338 335 324 316 282 271 278 272 263 259 254 245 251 266 276 287 299 298 297
95 221 138 107 86 70 28 335 325 324 323 318 313 309 306 304 300 296 295 289 286 289 261 243 246 254 259 267 279 288 290 290
84 228 208 214 331 337 338 316 319 324 323 320 317 308 306 301 295 288 286 284 283 281 274 265 259 261 264 271 273 275 278 282
219 191 191 201 219 251 297 312 321 323 321 313 311 312 316 311 303 298 293 288 280 274 270 269 260 260 265 264 265 269 270 273
211 201 214 224 218 230 300 320 323 315 316 313 309 309 307 311 315 312 302 291 284 281 277 272 270 262 253 257 258 264 268 270